Stations météo

réclame
Mon MeteoGroup
St-Sauveur, France (7300): Température de l'air & dewpoint: 17.02.2018 07:00:00 - 23.02.2018 07:00:00 (CET)St-Sauveur, France (7300): Vitesse du vent & gusts: 17.02.2018 07:00:00 - 23.02.2018 07:00:00 (CET)St-Sauveur, France (7300): Direction du vent: 17.02.2018 07:00:00 - 23.02.2018 07:00:00 (CET)St-Sauveur, France (7300): reduced air pressure: 17.02.2018 07:00:00 - 23.02.2018 07:00:00 (CET)St-Sauveur, France (7300): visibility: 17.02.2018 07:00:00 - 23.02.2018 07:00:00 (CET)St-Sauveur, France (7300): Quantités de précipitations: 17.02.2018 07:00:00 - 23.02.2018 07:00:00 (CET)
Date & Time tt [°C] td [°C] ff [km/h] ff [knt] fx [km/h] fx [knt] dd ppp [hPa] vv [km] rr [mm]
23.02.2018 07:00:00 0,7 -3,6 22 12 39 21 ENE 1014,9 18 0,0
23.02.2018 06:00:00 0,7 -3,2 20 11 38 20 NE 1014,9 - 0,0
23.02.2018 05:00:00 0,9 -3,2 22 12 36 19 ENE 1015,0 - 0,0
23.02.2018 04:00:00 1,1 -2,8 20 11 34 19 ENE 1015,2 18 0,0
23.02.2018 03:00:00 1,4 -2,7 22 12 34 19 ENE 1015,7 - 0,0
23.02.2018 02:00:00 1,7 -2,6 21 11 35 19 ENE 1015,9 - 0,0
23.02.2018 01:00:00 2,1 -2,6 19 10 37 20 ENE 1016,2 15 0,0
23.02.2018 00:00:00 2,5 -2,6 21 11 47 25 E 1016,6 - 0,0
22.02.2018 23:00:00 3,4 -2,6 24 13 48 26 E 1016,6 - 0,0
22.02.2018 22:00:00 4,2 -1,8 23 13 44 24 ENE 1016,3 - 0,0
22.02.2018 21:00:00 4,9 -2,9 27 15 46 25 NE 1016,2 - 0,0
22.02.2018 20:00:00 5,2 -2,6 23 13 38 21 NE 1016,0 - 0,0
22.02.2018 19:00:00 5,6 -3,0 19 11 37 20 NE 1015,9 - 0,0
22.02.2018 18:00:00 6,5 -1,4 19 10 34 18 NNE 1015,6 - 0,0
22.02.2018 17:00:00 6,8 -0,9 19 10 35 19 NNE 1015,6 - 0,0
22.02.2018 16:00:00 7,1 -0,6 17 9 38 21 NNE 1015,9 8 0,0
22.02.2018 15:00:00 6,9 -0,3 23 12 37 20 NNE 1016,6 - 0,0
22.02.2018 14:00:00 6,3 -0,7 21 11 35 19 NNE 1017,1 - 0,0
22.02.2018 13:00:00 5,2 -0,4 20 11 32 17 NNE 1017,8 6 0,0
22.02.2018 12:00:00 4,1 -0,5 20 11 31 17 NE 1018,2 - 0,0
22.02.2018 11:00:00 2,9 -1,1 20 11 37 20 NE 1018,6 - 0,0
22.02.2018 10:00:00 2,0 -1,3 21 11 34 19 NE 1018,8 7 0,0
22.02.2018 09:00:00 1,2 -1,2 19 11 32 17 NE 1018,7 - 0,0
22.02.2018 08:00:00 0,8 -1,3 18 10 37 20 NE 1018,5 - 0,0
22.02.2018 07:00:00 1,1 -1,1 19 11 35 19 NE 1018,5 15 0,0
22.02.2018 06:00:00 1,4 -1,0 18 10 32 18 NE 1018,5 - 0,0
22.02.2018 05:00:00 1,6 -1,0 18 10 34 18 NE 1018,6 - 0,0
22.02.2018 04:00:00 1,9 -0,8 18 10 36 20 ENE 1019,0 15 0,0
22.02.2018 03:00:00 2,2 -0,9 19 10 36 19 ENE 1019,5 - 0,0
22.02.2018 02:00:00 2,6 -1,2 19 10 42 23 ENE 1019,7 - 0,0
22.02.2018 01:00:00 3,3 -1,1 25 13 44 24 ENE 1019,9 15 0,0
22.02.2018 00:00:00 4,0 -1,2 21 11 48 26 NE 1020,1 - 0,0
21.02.2018 23:00:00 4,7 -1,5 25 13 44 24 NE 1020,4 - 0,0
21.02.2018 22:00:00 5,2 -1,5 23 12 47 26 NE 1020,5 18 0,0
21.02.2018 21:00:00 6,0 -1,6 25 14 47 25 NE 1020,4 - 0,0
21.02.2018 20:00:00 6,6 -2,1 22 12 43 23 NE 1020,2 - 0,0
21.02.2018 19:00:00 6,7 -2,5 24 13 40 22 NE 1019,9 18 0,0
21.02.2018 18:00:00 7,5 -1,7 22 12 41 22 NE 1019,7 - 0,0
21.02.2018 17:00:00 8,3 -1,0 20 11 40 22 NNE 1019,8 - 0,0
21.02.2018 16:00:00 8,6 -1,3 23 12 41 22 NE 1019,9 20 0,0
21.02.2018 15:00:00 8,9 0,3 20 11 40 22 NE 1020,5 - 0,0
21.02.2018 14:00:00 8,4 0,4 23 13 42 23 NE 1021,3 - 0,0
21.02.2018 13:00:00 7,9 0,6 24 13 42 23 NE 1021,7 15 0,0
21.02.2018 12:00:00 7,9 0,6 23 12 42 23 NE 1022,1 - 0,0
21.02.2018 11:00:00 7,8 1,6 22 12 45 24 ENE 1022,2 - 0,0
21.02.2018 10:00:00 7,5 2,0 21 12 39 21 ENE 1022,0 - 0,0
21.02.2018 09:00:00 6,8 3,9 26 14 42 23 NE 1021,7 - 0,0
21.02.2018 08:00:00 6,8 3,8 22 12 48 26 NE 1021,3 - 0,0
21.02.2018 07:00:00 7,2 4,2 23 12 41 22 NNE 1021,0 - 0,0
21.02.2018 06:00:00 7,3 4,3 23 12 48 26 NNE 1020,8 - 0,0
21.02.2018 05:00:00 7,4 4,2 25 14 43 23 N 1020,7 - 0,0
21.02.2018 04:00:00 7,4 4,2 23 12 45 25 N 1021,0 20 0,0
21.02.2018 03:00:00 7,5 3,9 30 16 50 27 N 1021,3 - 0,0
21.02.2018 02:00:00 8,2 3,8 30 16 55 30 N 1021,5 - 0,0
21.02.2018 01:00:00 8,0 4,4 29 16 52 28 N 1021,6 20 0,0
21.02.2018 00:00:00 7,9 3,5 27 15 56 30 N 1021,6 - 0,0
20.02.2018 23:00:00 7,9 3,9 31 17 55 30 N 1021,5 - 0,0
20.02.2018 22:00:00 8,5 4,1 30 16 54 29 N 1021,7 25 0,0
20.02.2018 21:00:00 8,7 3,9 25 14 60 33 N 1021,6 - 0,0
20.02.2018 20:00:00 8,8 3,0 29 16 61 33 N 1021,2 - 0,0
20.02.2018 19:00:00 9,3 5,7 28 15 51 28 N 1020,8 - 0,0
20.02.2018 18:00:00 9,8 7,0 24 13 46 25 N 1020,5 - 0,0
20.02.2018 17:00:00 10,5 7,7 22 12 49 26 N 1020,4 - 0,0
20.02.2018 16:00:00 12,1 8,8 23 12 44 24 N 1020,4 20 0,0
20.02.2018 15:00:00 12,3 8,6 23 13 49 26 NNW 1020,8 - 0,0
20.02.2018 14:00:00 12,0 8,3 26 14 50 27 NNW 1021,0 - 0,0
20.02.2018 13:00:00 11,4 8,3 31 17 55 30 NNW 1021,1 20 0,0
20.02.2018 12:00:00 11,2 7,9 23 12 46 25 NNW 1021,1 - 0,0
20.02.2018 11:00:00 10,5 7,9 29 16 49 27 NNW 1021,2 - 0,0
20.02.2018 10:00:00 10,3 8,1 24 13 48 26 NNW 1020,9 18 0,0
20.02.2018 09:00:00 9,3 7,7 24 13 46 25 N 1020,4 - 0,0
20.02.2018 08:00:00 9,1 7,9 24 13 46 25 NNW 1019,9 - 0,0
20.02.2018 07:00:00 9,4 8,2 26 14 51 28 NNW 1019,7 20 0,0
20.02.2018 06:00:00 9,3 8,4 25 13 46 25 NNW 1019,3 - 0,0
20.02.2018 05:00:00 9,4 8,2 26 14 53 28 NNW 1019,3 - 0,0
20.02.2018 04:00:00 9,5 8,1 26 14 50 27 NNW 1019,5 20 0,0
20.02.2018 03:00:00 9,6 8,4 24 13 45 24 NNW 1019,5 - 0,0
20.02.2018 02:00:00 9,6 8,4 25 14 45 24 NNW 1019,8 - 0,0
20.02.2018 01:00:00 9,6 8,4 22 12 40 22 NNW 1019,9 20 0,0
20.02.2018 00:00:00 9,7 8,6 21 11 39 21 NNW 1019,6 - 0,0
19.02.2018 23:00:00 10,1 9,0 20 11 41 22 NNW 1019,8 - 0,0
19.02.2018 22:00:00 10,2 9,3 23 12 40 22 NNW 1019,8 - 0,0
19.02.2018 21:00:00 10,2 9,4 22 12 37 20 NW 1019,6 - 0,0
19.02.2018 20:00:00 10,3 9,5 21 11 36 19 NNW 1019,5 - 0,0
19.02.2018 19:00:00 10,3 9,7 21 12 38 20 NW 1019,3 8 0,0
19.02.2018 18:00:00 10,5 9,9 19 10 33 18 NW 1019,3 - 0,0
19.02.2018 17:00:00 10,7 10,1 18 10 33 18 NNW 1019,3 - 0,0
19.02.2018 16:00:00 10,6 10,0 17 9 35 19 NNW 1019,3 8 0,0
19.02.2018 15:00:00 10,9 10,4 16 9 36 19 NNW 1019,4 - 0,0
19.02.2018 14:00:00 10,8 10,5 18 10 29 16 NNW 1019,6 - 0,0
19.02.2018 13:00:00 10,6 10,4 14 8 28 15 NNW 1020,0 0,9 0,2
19.02.2018 12:00:00 10,5 10,3 13 7 27 14 N 1020,0 - 0,2
19.02.2018 11:00:00 10,1 9,9 13 7 23 12 NNW 1019,9 - 0,2
19.02.2018 10:00:00 9,9 9,7 11 6 20 11 NNW 1019,9 0,9 0,2
19.02.2018 09:00:00 9,7 9,6 8 5 14 8 NNW 1019,7 - 0,0
19.02.2018 08:00:00 9,6 9,5 8 4 16 8 N 1019,6 - 0,0
19.02.2018 07:00:00 9,6 9,5 9 5 18 10 N 1019,5 0,9 0,2
19.02.2018 06:00:00 9,7 9,6 9 5 16 9 N 1019,4 - 0,0
19.02.2018 05:00:00 9,6 9,5 8 5 18 10 NNW 1019,2 - 0,0
19.02.2018 04:00:00 9,7 9,6 9 5 16 9 N 1019,3 0,9 0,0
19.02.2018 03:00:00 9,8 9,7 10 5 18 10 NNW 1019,6 - 0,0
19.02.2018 02:00:00 9,9 9,7 9 5 18 10 N 1019,7 - 0,0
19.02.2018 01:00:00 9,9 9,7 9 5 17 9 N 1020,2 0,9 0,0
19.02.2018 00:00:00 10,0 9,8 13 7 23 12 N 1020,2 - 0,4
18.02.2018 23:00:00 9,9 9,7 10 6 26 14 N 1020,5 - 0,2
18.02.2018 22:00:00 10,1 9,9 16 9 32 17 NNW 1020,7 0,9 0,8
18.02.2018 21:00:00 10,1 9,9 17 9 34 18 NW 1020,8 - 0,6
18.02.2018 20:00:00 10,1 9,9 22 12 37 20 NW 1020,9 - 0,8
18.02.2018 19:00:00 10,1 9,9 19 10 33 18 NW 1021,0 - 0,0
18.02.2018 18:00:00 10,3 10,0 19 11 35 19 NW 1020,9 - 0,0
18.02.2018 17:00:00 10,4 10,1 18 10 35 19 NW 1020,8 - 0,2
18.02.2018 16:00:00 10,7 10,4 19 10 34 19 NW 1020,9 0,8 0,4
18.02.2018 15:00:00 10,9 10,4 16 9 28 15 NW 1021,2 - 0,6
18.02.2018 14:00:00 11,1 10,6 5 3 14 8 W 1021,6 - 0,6
18.02.2018 13:00:00 11,2 10,6 8 4 19 10 NW 1022,1 - 0,2
18.02.2018 12:00:00 11,3 10,8 9 5 22 12 NW 1022,4 - 0,4
18.02.2018 11:00:00 10,9 10,6 16 8 31 17 NW 1022,5 - 0,0
18.02.2018 10:00:00 10,6 10,3 14 8 34 18 NW 1022,6 - 0,0
18.02.2018 09:00:00 10,2 9,9 15 8 38 21 NW 1022,6 - 0,0
18.02.2018 08:00:00 10,1 9,8 22 12 42 23 NW 1022,3 - 0,2
18.02.2018 07:00:00 10,3 10,0 19 10 39 21 NW 1022,1 - 0,4
18.02.2018 06:00:00 9,7 9,4 18 10 47 25 SW 1022,1 - 0,6
18.02.2018 05:00:00 9,0 8,4 31 17 49 27 SSW 1022,8 - 0,4
18.02.2018 04:00:00 9,2 8,6 29 15 42 23 SSW 1023,9 15 0,6
18.02.2018 03:00:00 9,0 8,2 19 11 31 17 SSW 1025,0 - 0,6
18.02.2018 02:00:00 9,0 8,1 19 10 25 14 SSW 1025,6 - 0,4
18.02.2018 01:00:00 8,9 7,7 10 6 21 11 SW 1026,5 20 0,0
18.02.2018 00:00:00 8,4 7,2 8 4 18 10 W 1026,9 - 0,0
17.02.2018 23:00:00 8,0 6,9 8 4 18 10 W 1026,9 - 0,0
17.02.2018 22:00:00 7,2 6,3 13 7 18 10 WNW 1026,7 20 0,0
17.02.2018 21:00:00 6,8 5,7 13 7 18 10 WNW 1026,7 - 0,0
17.02.2018 20:00:00 7,0 5,6 12 7 20 11 NW 1026,8 - 0,0
17.02.2018 19:00:00 7,8 6,3 13 7 23 12 WNW 1026,6 25 0,0
17.02.2018 18:00:00 9,0 6,8 12 6 31 17 NW 1025,8 - 0,0
17.02.2018 17:00:00 9,8 6,9 16 8 29 16 NW 1025,7 - 0,0
17.02.2018 16:00:00 10,0 3,5 18 10 31 17 NW 1025,6 25 0,0
17.02.2018 15:00:00 10,4 5,0 17 9 31 17 NNW 1025,4 - 0,0
17.02.2018 14:00:00 10,0 4,4 20 11 35 19 NW 1025,4 - 0,0
17.02.2018 13:00:00 10,3 6,4 15 8 34 19 NW 1025,2 25 0,0
17.02.2018 12:00:00 9,6 5,9 16 9 32 18 NNW 1024,8 - 0,0
17.02.2018 11:00:00 8,8 5,5 19 10 37 20 N 1023,9 - 0,0
17.02.2018 10:00:00 7,6 5,7 23 12 46 25 NNW 1023,2 - 0,0
17.02.2018 09:00:00 7,6 6,5 26 14 48 26 NNW 1022,0 - 0,0
17.02.2018 08:00:00 7,9 7,0 21 12 45 25 NNW 1020,3 - 0,0
17.02.2018 07:00:00 8,1 7,2 28 15 67 36 NNW 1018,1 - 0,0

tt = Température de l'air
td = dewpoint
ff = Vitesse du vent
fx = gusts
dd = Direction du vent
ppp = reduced air pressure
vv = visibility
rr = Quantités de précipitations

stations d'obs. à proximité